Weather History for LICZ - January, 2013

Change the Weather History Date:

Wednesday, January 23, 2013

  Actual Average Record
Temperature  
Mean Temperature 50 °F -  
Max Temperature 61 °F 61 °F - ()
Min Temperature 38 °F 42 °F - ()
Degree Days  
Heating Degree Days 16    
Moisture  
Dew Point 43 °F    
Average Humidity 83    
Maximum Humidity 100    
Minimum Humidity 41    
Precipitation  
Precipitation 0.00 in 0.07 in - ()
Sea Level Pressure  
Sea Level Pressure 29.87 in    
Wind  
Wind Speed 6 mph ()    
Max Wind Speed 15 mph    
Max Gust Speed -    
Visibility 6.8 miles    
Events      
T = Trace of Precipitation, MM = Missing Value Source: Averaged Metar Reports

Daily Weather History Graph

Daily Weather History Graph

Search for Another Location

Airport or City:

Trip Planner

Search our weather history database for the weather conditions in past years. The results will help you decide how hot, cold, wet, or windy it might be!

Date:

Astronomy

Jan. 23, 2013 Rise Set
Actual Time 7:10 AM CET 5:14 PM CET
Civil Twilight 6:41 AM CET 5:42 PM CET
Nautical Twilight 6:10 AM CET 6:14 PM CET
Astronomical Twilight 5:39 AM CET 6:45 PM CET
Moon 2:11 PM CET (1/23) 4:06 AM CET (1/23)
Length of Visible Light 11h 00m
Length of Day
10h 04m
Waxing Gibbous, 87% of the Moon is Illuminated
Jan 23
Waxing Gibbous
Jan 27
Full
Feb 3
Last Quarter
Feb 10
New
Feb 17
First Quarter

Hourly Weather History & Observations

Time (CET) Temp. Windchill Dew Point Humidity Pressure Visibility Wind Dir Wind Speed Gust Speed Precip Events Conditions
12:55 AM 44.6 °F 39.7 °F 42.8 °F 93% 29.95 in - WNW 9.2 mph - N/A   Clear
1:00 AM 45 °F - 43 °F 90% 29.95 in 10 mi WNW 9.2 mph - -  
1:55 AM 44.6 °F 40.7 °F 42.8 °F 93% 29.95 in - NW 6.9 mph - N/A   Clear
2:55 AM 42.8 °F 40.1 °F 42.8 °F 100% 29.95 in 6.2 mi WNW 4.6 mph - N/A   Partly Cloudy
3:55 AM 41.0 °F 36.4 °F 41.0 °F 100% 29.95 in 6.2 mi West 6.9 mph - N/A   Partly Cloudy
4:00 AM 42 °F - 41 °F 96% 29.95 in 9 mi West 6.9 mph - -   Scattered Clouds
4:55 AM 41.0 °F 38.0 °F 41.0 °F 100% 29.92 in 6.2 mi North 4.6 mph - N/A   Partly Cloudy
5:55 AM 41.0 °F 38.0 °F 41.0 °F 100% 29.95 in 6.2 mi West 4.6 mph - N/A   Partly Cloudy
6:55 AM 41.0 °F 36.4 °F 39.2 °F 93% 29.95 in 6.2 mi WNW 6.9 mph - N/A   Scattered Clouds
7:00 AM 40 °F - 40 °F 99% 29.95 in 9 mi WNW 6.9 mph - -   Scattered Clouds
7:55 AM 39.2 °F 35.9 °F 39.2 °F 100% 29.95 in 6.2 mi SW 4.6 mph - N/A   Partly Cloudy
8:55 AM 42.8 °F 40.1 °F 41.0 °F 93% 29.95 in 6.2 mi NW 4.6 mph - N/A   Partly Cloudy
9:55 AM 46.4 °F - 41.0 °F 81% 29.95 in 6.2 mi NW 2.3 mph - N/A   Scattered Clouds
10:00 AM 47 °F - 41 °F 73% 29.97 in 9 mi NW 2.3 mph - -   Partly Cloudy
10:55 AM 53.6 °F - 42.8 °F 67% 29.92 in 6.2 mi East 11.5 mph - N/A   Scattered Clouds
11:55 AM 55.4 °F - 44.6 °F 67% 29.89 in 6.2 mi East 10.4 mph - N/A   Scattered Clouds
12:55 PM 59.0 °F - 48.2 °F 67% 29.89 in 6.2 mi SE 9.2 mph - N/A   Scattered Clouds
1:00 PM 59 °F - 48 °F 59% 29.89 in 8 mi SE 9.2 mph - -   Mostly Cloudy
1:55 PM 59.0 °F - 42.8 °F 55% 29.80 in 6.2 mi South 13.8 mph - N/A   Scattered Clouds
2:55 PM 59.0 °F - 48.2 °F 67% 29.80 in 6.2 mi NW 8.1 mph - N/A   Scattered Clouds
3:55 PM 59.0 °F - 41.0 °F 51% 29.80 in 6.2 mi SW 8.1 mph - N/A   Scattered Clouds
4:00 PM 59 °F - 42 °F 41% 29.82 in 9 mi SW 8.1 mph - -   Partly Cloudy
4:55 PM 55.4 °F - 44.6 °F 67% 29.80 in 6.2 mi SW 6.9 mph - N/A   Scattered Clouds
5:55 PM 51.8 °F - 44.6 °F 76% 29.80 in 6.2 mi WSW 4.6 mph - N/A   Partly Cloudy
6:55 PM 50.0 °F - 44.6 °F 82% 29.80 in 6.2 mi NE 1.2 mph - N/A   Partly Cloudy
7:00 PM 50 °F - 44 °F 75% 29.81 in 9 mi NE 1.2 mph - -   Scattered Clouds
7:55 PM 46.4 °F 45.2 °F 44.6 °F 93% 29.77 in 6.2 mi ENE 3.5 mph - N/A   Partly Cloudy
8:55 PM 44.6 °F 43.1 °F 44.6 °F 100% 29.77 in 6.2 mi East 3.5 mph - N/A   Scattered Clouds
9:55 PM 42.8 °F 38.6 °F 42.8 °F 100% 29.74 in 6.2 mi ENE 6.9 mph - N/A   Scattered Clouds
10:00 PM 44 °F - 44 °F 97% 29.75 in 6 mi ENE 6.9 mph - -   Partly Cloudy
10:55 PM 44.6 °F 42.2 °F 42.8 °F 93% 29.71 in 6.2 mi SE 4.6 mph - N/A   Scattered Clouds
11:55 PM 48.2 °F - 44.6 °F 87% 29.68 in 6.2 mi WSW 15.0 mph - N/A   Scattered Clouds